Weather History for KJST - September, 2011

Change the Weather History Date:

Thursday, September 22, 2011

  Actual Average Record
Temperature  
Mean Temperature 66 °F 57 °F  
Max Temperature 71 °F 66 °F 95 °F (1914)
Min Temperature 61 °F 49 °F 31 °F (1956)
Degree Days  
Heating Degree Days 0 8  
Month to date heating degree days 103  
Since 1 July heating degree days 145  
Cooling Degree Days 1 0  
Month to date cooling degree days 22  
Year to date cooling degree days 382  
Growing Degree Days 16 (Base 50)    
Moisture  
Dew Point 61 °F    
Average Humidity 93    
Maximum Humidity 100    
Minimum Humidity 68    
Precipitation  
Precipitation 0.35 in 0.12 in 1.06 in (1950)
Month to date precipitation 2.51  
Year to date precipitation 26.80  
Sea Level Pressure  
Sea Level Pressure 30.13 in    
Wind  
Wind Speed 4 mph (SW)    
Max Wind Speed 12 mph    
Max Gust Speed -    
Visibility 7 miles    
Events Fog , Rain    
T = Trace of Precipitation, MM = Missing Value Source: NWS Daily Summary

Daily Weather History Graph

Daily Weather History Graph

Search for Another Location

Airport or City:

Trip Planner

Search our weather history database for the weather conditions in past years. The results will help you decide how hot, cold, wet, or windy it might be!

Date:

Astronomy

Sep. 22, 2011 Rise Set
Actual Time 7:02 AM EDT 7:12 PM EDT
Civil Twilight 6:35 AM EDT 7:40 PM EDT
Nautical Twilight 6:03 AM EDT 8:11 PM EDT
Astronomical Twilight 5:31 AM EDT 8:44 PM EDT
Moon 1:20 AM EDT (9/22) 4:04 PM EDT (9/22)
Length of Visible Light 13h 04m
Length of Day
12h 10m
Waning Crescent, 29% of the Moon is Illuminated
Sep 22
Waning Crescent
Sep 27
New
Oct 3
First Quarter
Oct 11
Full
Oct 19
Last Quarter

Hourly Weather History & Observations

Time (EDT) Temp. Dew Point Humidity Pressure Visibility Wind Dir Wind Speed Gust Speed Precip Events Conditions
12:51 AM 62.6 °F 60.8 °F 94% 30.12 in 6.0 mi Calm Calm - 0.01 in   Mostly Cloudy
12:54 AM 62.1 °F 61.0 °F 96% 30.10 in 6.0 mi South 3.5 mph - 0.01 in   Mostly Cloudy
1:54 AM 62.1 °F 62.1 °F 100% 30.09 in 9.0 mi South 5.8 mph - N/A   Overcast
2:54 AM 61.0 °F 61.0 °F 100% 30.08 in 7.0 mi South 4.6 mph - N/A   Mostly Cloudy
3:54 AM 61.0 °F 61.0 °F 100% 30.07 in 7.0 mi SSW 3.5 mph - N/A   Scattered Clouds
4:54 AM 62.1 °F 61.0 °F 96% 30.07 in 9.0 mi SSW 5.8 mph - N/A   Overcast
5:54 AM 62.1 °F 61.0 °F 96% 30.08 in 10.0 mi SSW 6.9 mph - N/A   Overcast
6:54 AM 62.1 °F 61.0 °F 96% 30.09 in 10.0 mi SSW 6.9 mph - 0.00 in   Overcast
7:54 AM 62.1 °F 61.0 °F 96% 30.11 in 10.0 mi SSW 6.9 mph - N/A   Overcast
8:27 AM 62.6 °F 60.8 °F 94% 30.13 in 5.0 mi West 4.6 mph - 0.00 in Rain Light Rain
8:54 AM 62.1 °F 62.1 °F 100% 30.12 in 4.0 mi SSW 3.5 mph - 0.01 in Rain Light Rain
9:07 AM 62.6 °F 62.6 °F 100% 30.14 in 4.0 mi South 3.5 mph - 0.00 in Rain Light Rain
9:23 AM 62.6 °F 62.6 °F 100% 30.15 in 1.5 mi SSW 4.6 mph - 0.04 in Rain Heavy Rain
9:34 AM 62.6 °F 62.6 °F 100% 30.15 in 0.8 mi SSW 4.6 mph - 0.13 in Rain Heavy Rain
9:45 AM 62.6 °F 62.6 °F 100% 30.15 in 1.5 mi SW 4.6 mph - 0.16 in Rain Rain
9:54 AM 62.1 °F 62.1 °F 100% 30.14 in 0.8 mi WSW 5.8 mph - 0.23 in Rain Heavy Rain
10:02 AM 62.6 °F 62.6 °F 100% 30.15 in 0.5 mi West 4.6 mph - 0.09 in Fog , Rain Heavy Rain
10:08 AM 62.6 °F 62.6 °F 100% 30.16 in 1.2 mi SW 4.6 mph - 0.10 in Rain Light Rain
10:12 AM 62.6 °F 62.6 °F 100% 30.16 in 3.0 mi SSW 4.6 mph - 0.10 in Rain Light Rain
10:19 AM 62.6 °F 62.6 °F 100% 30.16 in 9.0 mi SW 4.6 mph - 0.10 in   Overcast
10:29 AM 64.4 °F 62.6 °F 94% 30.16 in 8.0 mi SSW 5.8 mph - 0.10 in   Overcast
10:35 AM 62.6 °F 62.6 °F 100% 30.16 in 8.0 mi SW 6.9 mph - 0.10 in   Overcast
10:54 AM 63.0 °F 63.0 °F 100% 30.15 in 7.0 mi SW 4.6 mph - 0.10 in   Overcast
11:54 AM 64.9 °F 64.0 °F 97% 30.14 in 9.0 mi West 4.6 mph - 0.00 in Rain Light Rain
12:46 PM 66.2 °F 62.6 °F 88% 30.16 in 10.0 mi WSW 8.1 mph - 0.00 in   Mostly Cloudy
12:54 PM 66.9 °F 64.0 °F 90% 30.14 in 10.0 mi WSW 10.4 mph - 0.00 in   Mostly Cloudy
1:24 PM 66.2 °F 62.6 °F 88% 30.17 in 10.0 mi WSW 5.8 mph - 0.00 in   Overcast
1:33 PM 66.2 °F 62.6 °F 88% 30.17 in 10.0 mi West 8.1 mph - 0.00 in   Overcast
1:54 PM 66.2 °F 62.6 °F 88% 30.17 in 10.0 mi WSW 8.1 mph - N/A   Overcast
2:54 PM 71.1 °F 61.0 °F 70% 30.13 in 10.0 mi WSW 11.5 mph - N/A   Partly Cloudy
3:54 PM 70.0 °F 59.0 °F 68% 30.12 in 10.0 mi West 10.4 mph - N/A   Partly Cloudy
6:54 PM 66.9 °F 59.0 °F 76% 30.12 in 10.0 mi West 3.5 mph - N/A   Clear
7:54 PM 64.0 °F 57.9 °F 80% 30.13 in 10.0 mi Calm Calm - N/A   Clear
8:54 PM 61.0 °F 57.9 °F 90% 30.14 in 8.0 mi ESE 3.5 mph - N/A   Clear
9:54 PM 62.1 °F 57.9 °F 86% 30.14 in 9.0 mi Calm Calm - N/A   Clear
10:54 PM 61.0 °F 57.0 °F 87% 30.14 in 10.0 mi SSE 4.6 mph - N/A   Clear
11:54 PM 62.1 °F 57.0 °F 84% 30.13 in 10.0 mi South 3.5 mph - N/A   Clear